Dewpoint
60 55 45 39 37 33 33 29 13 7 -0 -9 -19 -12 -16 -12 -0 2 5 27 39 42 35 43 30 39 43 43 39 43 50 39 42 41 45 58 62 64 64 65 65 66 69 72 72 72 73 74 74 74 74 74 74 73 73 73 74 74 73 73 73 73 73 73 72 72 72 72 71 71 71 70 70 70 70 70 70 69 69 69 69 69 69 69 69 68 68 67 67 67 67 67 66 66 67 67 68
35 37 39 38 36 34 25 25 7 2 3 -8 -9 -15 -5 -3 2 -4 3 15 39 46 44 45 42 43 50 48 50 49 47 57 56 58 62 63 64 63 63 66 66 68 69 72 72 72 72 73 74 74 74 74 74 73 73 73 73 73 73 73 73 73 72 72 72 72 72 72 71 70 70 70 70 69 70 70 70 69 69 68 68 68 68 69 68 68 67 66 66 66 66 66 66 66 67 67 68
25 31 28 31 33 29 28 16 2 -3 -6 -5 -9 -7 2 -9 -7 5 18 33 42 49 51 50 49 50 50 50 46 43 50 58 59 61 61 64 62 63 63 65 67 68 70 73 72 71 71 72 74 74 74 74 74 74 73 73 73 73 73 73 73 73 72 72 72 72 71 71 70 70 70 70 69 69 70 70 70 70 70 70 67 68 68 68 67 67 66 65 66 67 66 66 66 66 66 66 67
36 34 29 29 23 19 18 13 4 -3 -3 -11 -15 11 17 19 23 37 35 47 49 51 51 50 49 53 49 46 47 53 53 57 60 60 62 62 62 63 63 65 68 68 69 71 71 70 72 73 74 74 74 74 74 74 73 73 73 73 73 73 73 73 72 73 72 72 71 71 71 70 70 70 70 70 69 69 70 70 70 69 69 68 68 68 67 67 66 65 65 66 66 66 66 66 65 66 66
32 34 35 29 29 16 15 12 6 0 -4 -9 -11 26 30 34 38 37 43 48 48 49 51 51 50 52 56 54 53 49 55 59 59 61 61 64 64 64 64 65 66 67 68 69 72 71 73 72 73 74 74 74 74 74 73 73 73 73 73 73 72 72 72 73 72 72 71 71 71 70 70 70 70 70 70 71 71 70 69 69 70 69 68 67 67 68 69 68 67 66 66 66 66 66 66 66 66
27 31 33 32 24 29 14 9 2 -2 -5 2 -6 27 33 41 42 43 46 45 47 49 50 50 49 49 53 58 58 56 59 55 61 61 63 64 64 64 64 64 64 65 66 68 72 73 72 72 71 72 73 73 74 73 73 74 73 73 73 72 72 72 72 72 73 72 72 72 72 71 70 71 71 71 71 71 71 70 70 70 70 68 68 67 67 67 67 67 66 67 66 66 66 66 66 66 67
28 29 27 27 21 19 14 5 -2 0 -1 -1 4 28 38 41 41 42 41 43 47 48 51 49 52 53 53 57 58 61 61 62 61 63 65 65 65 64 63 63 64 65 65 66 68 71 71 70 70 71 72 72 73 73 74 73 73 73 73 73 72 72 72 72 72 72 72 72 72 72 72 72 72 71 71 71 71 70 70 70 68 67 68 68 67 67 67 67 66 66 66 66 67 67 67 68 68
34 29 22 17 13 14 8 6 7 6 3 2 18 26 37 43 41 40 39 40 41 44 50 52 52 49 56 58 53 62 62 63 64 66 67 66 65 64 63 63 64 64 64 67 68 71 72 69 69 70 71 71 72 73 73 73 73 73 73 73 73 72 72 72 72 72 72 72 72 72 72 72 72 71 71 71 71 70 69 69 68 67 67 67 67 67 67 66 66 66 66 67 67 68 68 68 67
27 27 25 19 15 12 7 8 3 15 8 5 17 27 32 25 28 36 37 40 42 45 48 49 50 47 49 55 56 63 63 65 67 68 67 66 65 63 62 63 62 64 64 64 67 70 72 70 70 70 70 71 71 71 72 73 73 74 74 73 73 72 73 72 72 72 72 72 72 72 72 72 71 71 71 71 71 70 69 68 68 68 67 67 67 66 66 66 66 67 67 68 68 68 67 67 66
23 24 18 11 8 11 1 1 7 3 2 2 9 20 19 17 21 24 33 36 39 43 45 47 48 47 53 55 58 61 64 67 67 67 67 66 64 62 62 63 63 63 64 65 67 67 70 72 71 70 70 71 71 71 71 72 73 73 73 73 73 73 73 72 72 72 72 72 72 72 72 72 72 71 71 71 71 71 70 68 69 68 68 67 67 66 66 66 67 67 68 68 67 67 67 66 66
20 12 25 14 10 2 2 0 3 8 1 1 5 10 10 12 13 17 22 26 29 36 45 47 47 51 53 54 60 65 66 66 66 66 66 65 63 62 63 63 64 65 64 65 67 68 69 70 72 71 70 70 70 70 69 69 71 73 73 73 73 73 73 72 72 72 72 72 72 72 72 72 72 71 71 71 71 71 70 69 68 68 68 67 67 67 66 67 68 67 68 68 67 67 67 66 66
19 11 10 5 7 6 0 2 5 0 2 -1 0 7 12 11 13 13 20 22 25 29 40 42 46 51 52 54 57 65 65 65 66 66 65 64 63 63 64 64 65 65 66 66 66 67 67 69 71 72 70 70 70 69 69 69 70 71 72 73 73 73 73 73 72 72 72 72 72 72 72 72 71 71 70 70 70 70 70 69 68 68 68 68 67 67 67 67 67 67 67 68 68 67 67 66 66
15 13 7 4 4 7 5 5 -4 3 1 1 -2 13 11 12 10 10 14 19 23 28 32 40 46 46 48 51 61 64 63 65 66 66 64 63 63 63 63 64 64 65 66 67 66 66 67 67 70 69 70 70 70 69 68 68 69 69 70 70 70 72 73 73 73 73 72 72 72 72 72 72 71 70 70 70 70 71 70 69 70 69 69 69 68 68 68 67 67 67 67 68 68 68 67 66 66
10 14 8 7 12 4 4 -1 3 -1 -5 2 8 12 11 10 10 10 11 15 20 22 29 40 45 45 52 56 59 62 64 66 66 65 64 64 63 62 64 64 66 65 65 66 67 66 67 67 67 70 71 72 71 69 68 68 69 68 68 68 70 70 72 72 72 72 72 72 72 72 71 71 71 70 70 70 70 71 71 70 70 69 69 69 68 68 68 67 67 67 67 69 68 68 67 66 66
13 15 13 11 9 7 2 2 -2 -4 -5 7 11 10 10 13 16 16 11 12 16 22 47 44 42 42 47 48 53 58 63 65 66 65 65 65 62 63 63 64 66 66 65 65 66 66 64 65 67 68 69 70 71 72 71 69 69 69 68 68 70 70 70 71 71 72 72 72 71 71 71 71 71 71 71 71 71 71 70 71 70 70 70 68 69 69 68 68 67 67 68 68 68 67 66 66 67
17 11 11 15 5 3 4 1 1 -0 5 8 10 10 9 14 26 24 15 11 27 43 41 41 50 42 46 42 53 59 63 65 67 67 66 65 64 64 64 64 64 64 65 64 65 65 63 64 67 67 68 69 71 70 71 71 69 68 68 68 68 68 70 69 69 71 71 71 71 70 70 71 70 71 71 70 71 71 71 69 70 70 70 70 69 69 69 67 69 69 68 68 67 67 66 66 67
15 12 14 8 6 5 2 1 1 -1 9 8 10 10 9 10 28 28 33 26 32 40 36 46 47 47 47 50 56 62 63 66 67 67 66 65 64 65 65 65 64 64 64 64 64 64 61 62 64 67 68 67 71 69 70 69 69 68 67 69 68 67 68 66 68 70 71 71 71 69 69 69 71 71 71 63 71 69 70 70 70 71 70 69 70 69 68 68 69 68 68 68 67 67 67 67 67
12 13 9 11 5 4 1 -1 2 9 9 9 10 9 10 14 34 38 35 26 31 41 43 52 50 53 55 56 60 63 64 67 67 66 65 64 65 64 64 65 64 64 64 63 62 61 62 63 61 63 67 67 68 69 68 69 69 68 69 69 68 67 68 68 70 71 69 71 70 70 69 67 67 68 65 63 64 65 69 69 70 71 71 70 70 70 69 69 68 68 68 67 67 66 65 60 63
8 9 12 6 5 3 7 6 7 8 9 10 10 10 9 17 28 37 32 24 32 42 46 50 49 54 58 58 60 63 65 66 67 66 65 64 63 64 64 65 65 64 64 63 62 61 62 63 61 62 64 67 68 68 70 70 70 68 69 69 70 69 69 69 68 69 68 69 69 67 66 67 66 65 67 63 64 70 67 70 69 70 71 70 70 70 69 68 67 67 67 67 67 67 60 58 59
7 12 6 2 4 8 10 8 8 10 10 10 10 9 9 18 31 39 34 32 41 38 44 46 49 54 57 59 60 62 65 65 66 65 63 63 63 63 64 65 64 64 63 62 62 61 63 64 62 61 63 66 68 69 70 70 69 70 69 67 68 69 70 68 68 67 66 67 66 67 66 66 66 67 68 70 68 64 68 68 68 68 69 70 70 70 70 68 68 67 66 68 67 61 59 58 55
10 6 3 2 8 5 3 8 9 9 9 9 9 9 8 28 30 35 37 34 34 34 42 46 47 53 57 59 60 63 64 64 64 65 63 62 63 63 63 64 64 63 63 63 63 62 62 63 63 63 62 64 66 68 69 68 70 67 68 68 67 67 68 68 68 68 67 68 67 67 64 67 64 66 67 65 63 65 65 65 67 65 64 62 67 62 62 61 67 66 67 64 61 61 60 60 59
10 5 2 6 7 4 4 6 7 8 9 9 9 8 7 16 29 35 37 31 30 33 45 47 50 54 57 59 60 62 63 62 63 63 63 63 63 63 64 63 64 64 64 62 63 61 61 62 61 62 62 62 66 66 65 67 69 67 68 68 68 67 67 67 68 68 68 69 67 65 66 65 62 65 67 66 66 67 66 64 65 65 64 63 62 60 59 60 60 62 64 63 63 63 62 61 60
4 3 4 7 7 6 8 7 7 9 8 8 7 8 9 10 26 35 37 34 36 42 48 49 51 53 57 60 60 64 63 61 63 62 61 63 62 63 64 63 64 63 63 62 62 61 60 59 60 61 61 63 64 62 64 65 65 68 67 68 67 66 67 67 67 67 68 68 68 67 65 61 60 63 66 66 67 67 67 66 65 67 66 63 64 61 60 61 59 60 62 64 62 62 61 60 60
5 3 7 9 10 8 7 6 7 8 9 8 8 9 8 10 20 34 37 35 32 38 45 54 56 56 59 58 61 64 64 61 62 62 61 63 63 63 64 64 63 63 62 62 61 61 62 59 59 59 61 63 64 61 63 63 65 65 68 67 67 67 66 66 68 68 68 69 69 68 65 63 61 60 62 63 64 68 68 68 68 64 65 62 63 61 59 58 58 59 62 60 60 60 59 60 58
3 1 2 3 6 7 7 7 8 9 9 9 9 8 9 10 25 34 37 34 35 38 45 54 57 58 58 59 61 62 62 62 62 62 62 61 62 65 64 63 63 62 60 63 62 59 57 60 60 57 59 62 63 62 61 61 64 64 64 65 66 67 67 67 67 68 68 67 68 68 67 67 63 62 61 65 64 67 68 68 67 65 65 63 62 60 59 59 58 59 60 61 62 60 58 60 58
3 3 6 6 6 8 7 9 8 8 8 9 9 9 11 13 23 31 36 37 37 42 47 52 56 57 58 58 61 62 63 63 62 63 63 64 64 65 63 63 63 63 62 63 62 60 55 57 55 56 58 57 60 60 61 61 62 63 64 65 66 68 67 69 70 67 67 68 67 68 66 67 65 62 65 65 66 67 67 69 68 68 66 63 63 62 60 58 58 58 57 58 57 58 57 58 58
8 7 8 8 8 8 9 8 9 10 11 10 9 10 9 15 25 23 33 40 42 43 49 54 55 57 58 58 62 63 62 62 63 64 64 64 64 63 64 64 62 60 63 62 61 58 60 53 53 55 56 62 57 55 60 62 63 61 61 64 67 67 68 68 67 67 66 65 67 67 66 67 68 67 67 67 66 66 66 68 70 71 71 69 66 61 61 60 59 57 57 55 56 59 57 57 56
11 11 10 9 8 8 8 9 9 9 10 10 9 7 8 13 14 19 30 38 44 45 47 53 54 57 58 58 60 62 63 63 63 64 63 63 61 62 65 64 62 61 62 62 59 59 62 55 52 56 59 66 63 54 61 60 61 60 62 62 67 66 68 66 66 68 68 67 67 69 69 69 67 68 69 68 67 65 66 67 68 69 68 68 67 63 60 60 59 55 56 59 59 59 59 59 59
11 11 8 6 6 6 8 7 8 11 7 7 10 7 7 8 7 19 31 37 40 44 48 50 52 56 58 58 60 61 59 60 60 61 63 63 63 64 64 63 62 61 59 61 59 63 63 63 59 61 59 66 62 59 57 59 61 59 60 62 66 68 68 67 66 67 68 69 69 68 68 68 68 68 69 68 65 64 67 67 67 68 69 67 67 65 61 61 59 58 59 58 59 60 60 60 58
11 10 7 4 3 4 8 9 8 7 7 7 7 8 8 5 9 21 33 36 40 43 45 48 51 55 56 59 59 59 59 59 61 62 62 62 63 63 62 62 63 58 56 59 65 65 66 67 66 66 64 61 63 59 61 57 60 60 60 62 64 67 66 65 67 67 67 67 68 67 67 67 67 67 66 68 67 66 66 66 66 66 67 67 67 67 61 60 60 58 57 58 59 59 59 61 59
7 7 5 8 4 5 9 9 8 6 7 8 7 13 7 6 8 20 35 36 38 38 41 47 50 54 56 59 59 59 59 61 60 60 61 61 61 61 61 63 63 59 57 61 65 65 67 65 65 65 67 63 64 61 59 60 61 58 58 60 62 62 63 65 66 67 66 66 66 65 67 67 65 65 65 67 67 67 66 66 66 65 67 66 67 66 63 60 60 60 57 57 59 58 58 61 61
7 3 4 3 4 8 12 16 15 6 9 9 7 15 7 8 9 17 31 34 36 35 41 45 49 51 55 56 57 56 57 57 56 55 59 60 60 60 60 62 65 63 61 63 63 67 65 66 66 65 66 65 64 64 64 63 61 61 60 60 60 61 58 61 63 65 64 63 64 65 66 67 67 67 66 67 67 66 66 66 66 66 66 67 67 66 65 61 59 62 63 62 61 60 60 61 65
7 8 17 8 5 7 7 14 16 15 11 10 7 5 5 7 9 20 32 33 35 35 38 46 46 48 53 54 55 54 54 56 53 52 57 59 59 59 61 61 64 65 65 66 66 67 65 65 66 65 65 64 64 63 61 63 62 60 60 60 59 60 58 58 58 60 61 63 63 62 66 67 67 66 67 67 67 66 65 66 66 67 67 65 66 68 67 63 60 60 64 64 64 63 59 59 62
10 10 15 13 6 6 5 12 15 16 12 9 9 6 9 12 9 13 29 31 32 33 36 43 47 48 51 52 51 52 54 54 52 51 56 57 55 59 60 61 64 65 67 66 67 67 66 65 65 65 66 64 61 60 61 60 60 59 58 58 60 57 58 57 56 57 58 60 61 63 65 65 66 66 67 66 67 66 65 65 65 66 66 66 66 66 66 65 65 66 66 66 64 64 63 61 62
13 14 17 11 9 11 9 8 16 17 11 13 14 11 11 10 10 11 19 29 31 34 34 40 44 46 49 49 49 49 51 52 53 52 52 56 57 57 59 62 64 65 65 66 67 67 65 65 65 66 65 63 61 61 62 61 61 60 59 59 58 57 58 56 56 57 57 59 59 61 60 61 60 62 64 66 66 65 65 65 64 65 65 66 66 65 65 66 66 66 64 64 65 65 64 65 65
10 11 12 13 15 6 4 14 20 19 14 8 11 10 10 12 12 13 21 27 32 34 41 43 44 43 48 48 47 47 49 51 53 53 52 54 55 58 58 59 63 63 64 65 66 66 65 65 65 65 63 60 60 59 57 54 54 52 54 55 55 56 57 56 57 56 57 56 59 59 59 60 58 60 60 61 62 63 63 63 65 65 65 65 65 65 64 64 65 66 65 64 65 64 64 64 65
15 13 12 8 6 10 13 15 20 22 17 12 17 18 15 15 16 19 23 29 34 36 38 42 40 42 42 44 47 48 51 50 50 52 53 53 54 56 58 59 61 62 63 65 66 66 65 64 65 63 61 61 57 55 53 51 50 50 52 53 52 55 55 57 56 56 56 56 57 54 55 55 58 58 58 59 61 61 61 63 65 65 65 65 64 65 65 65 66 66 66 67 66 64 65 66 65
20 17 13 8 10 9 13 18 21 20 28 13 19 17 16 19 20 20 23 23 25 33 36 40 40 39 41 42 44 47 51 48 46 51 51 52 50 56 58 58 60 61 62 63 65 66 66 64 64 63 61 59 57 56 53 52 53 49 51 51 49 49 48 49 52 55 56 56 54 54 53 53 56 58 57 59 60 59 59 59 62 64 64 64 65 64 64 64 64 65 65 65 65 64 65 66 65
23 16 13 11 11 9 19 23 22 22 22 15 17 14 15 21 20 22 24 23 22 28 33 36 40 39 37 36 41 45 47 50 49 51 51 50 51 54 56 58 59 60 61 62 64 65 65 64 63 63 60 58 57 57 54 52 54 55 52 50 48 51 54 56 51 52 53 50 56 54 54 56 56 55 57 56 58 58 58 57 59 59 61 63 63 64 64 65 65 64 64 63 64 64 64 66 66
21 15 17 14 12 13 13 24 27 29 24 22 19 16 16 21 23 23 25 25 33 41 39 41 41 38 37 37 38 41 45 49 51 51 51 50 50 52 54 56 58 59 60 61 63 64 64 62 63 61 60 59 58 57 53 55 56 59 57 57 55 51 51 53 55 55 54 54 53 54 56 58 56 56 54 53 54 56 57 58 58 58 60 61 60 60 62 61 62 63 62 62 62 62 61 63 66
24 26 16 13 18 16 13 24 26 32 32 31 19 20 15 17 19 19 28 28 31 30 30 32 32 32 38 43 44 44 44 47 50 52 53 51 50 51 52 54 57 58 60 60 62 62 62 62 63 62 60 59 58 57 56 58 57 56 58 58 56 55 53 52 52 51 54 53 53 54 56 56 56 55 55 55 52 54 56 57 57 58 58 58 57 57 57 58 59 61 62 63 61 61 61 63 65
22 25 24 20 21 22 20 24 21 21 26 27 22 10 10 16 17 15 22 24 22 24 25 26 28 30 28 31 37 41 47 47 47 50 52 53 52 52 52 53 55 56 58 59 61 61 61 60 62 61 59 58 56 57 58 55 53 52 51 49 47 48 48 51 49 50 52 53 49 54 54 54 55 56 55 55 53 53 56 57 58 55 57 57 56 55 55 55 56 57 59 60 61 63 63 62 62
18 20 21 21 18 23 23 23 21 12 10 25 30 13 7 18 17 20 22 20 21 25 27 23 24 25 23 25 28 32 38 43 46 48 49 52 53 52 52 53 54 54 56 59 60 61 60 60 62 61 59 58 57 57 57 53 54 52 51 48 47 46 45 49 51 53 53 50 54 54 55 57 55 57 56 55 54 53 55 56 57 55 54 55 56 56 55 56 53 54 57 58 59 60 61 60 59
15 33 18 16 17 23 25 23 20 14 23 29 25 16 11 12 17 22 21 20 18 21 26 27 22 25 24 28 25 32 33 39 42 46 48 50 52 53 52 53 54 53 56 58 60 60 59 61 61 60 58 57 57 58 56 54 53 52 52 48 46 45 46 50 53 54 54 53 52 54 55 56 56 55 56 55 54 53 54 54 55 56 53 53 52 53 54 54 55 56 58 58 57 58 58 58 59
22 31 22 20 18 25 24 19 18 20 20 13 22 16 15 14 17 20 19 15 17 17 23 25 27 27 30 31 31 31 34 35 36 36 45 49 50 53 53 54 54 53 55 57 58 59 59 61 60 60 58 57 58 59 56 55 53 52 51 49 46 46 49 50 50 52 52 53 55 53 55 54 55 55 53 55 55 52 51 50 50 49 48 46 45 47 52 54 57 58 58 57 57 56 57 57 55
32 28 23 23 23 24 26 20 16 21 19 13 16 23 12 9 15 19 17 13 17 22 22 23 27 28 29 31 34 34 32 34 35 35 36 41 49 52 54 54 54 54 55 56 57 58 59 60 59 58 57 56 58 58 57 55 54 54 52 50 49 47 48 48 48 50 53 54 53 55 54 53 52 53 54 52 50 46 47 47 47 48 48 46 45 46 49 51 53 54 56 57 57 57 56 56 54
28 24 21 20 19 22 22 20 18 20 13 12 25 22 15 7 13 17 19 27 25 23 24 26 27 27 26 33 30 31 29 32 31 32 35 38 42 52 53 54 54 55 57 55 56 56 58 59 58 57 57 55 58 58 56 55 55 55 52 51 51 50 49 50 50 52 51 53 52 53 52 51 51 50 52 52 50 49 50 49 49 49 50 49 46 45 47 46 50 51 52 54 54 55 54 55 55
23 25 19 18 20 21 19 18 19 13 9 20 20 21 20 8 9 16 24 25 28 29 28 28 28 26 28 33 29 31 32 35 34 33 34 37 40 50 53 54 54 56 56 55 56 56 57 57 58 57 57 56 57 57 56 55 55 54 54 54 51 51 51 50 51 51 52 52 52 50 50 51 51 50 51 49 50 51 51 50 51 50 49 49 49 48 47 47 48 48 49 50 51 52 52 52 52
21 21 19 18 13 20 12 15 12 9 7 20 20 21 19 12 13 23 22 22 26 31 25 26 26 25 32 29 32 32 34 35 36 35 37 37 41 50 54 53 54 56 55 55 55 56 56 57 57 56 56 56 57 57 56 56 56 55 54 55 52 52 52 51 50 51 51 49 50 50 49 49 50 50 49 50 51 52 51 52 51 48 49 49 49 47 48 48 49 47 48 50 50 50 50 51 49
19 17 20 14 10 9 12 6 9 5 18 20 20 24 11 11 19 24 26 27 25 27 28 27 27 31 33 30 32 33 37 36 37 37 37 37 44 49 52 52 52 54 54 53 55 56 55 56 55 55 55 56 56 56 56 55 56 56 56 55 53 52 53 53 50 51 52 49 49 50 48 48 49 51 51 51 50 50 51 52 51 51 49 49 49 50 50 49 49 45 49 49 50 49 50 51 50
15 15 12 19 15 13 11 6 7 7 6 21 19 19 15 11 19 25 27 26 23 22 19 26 30 30 33 32 33 35 38 40 38 40 42 45 47 50 52 51 53 53 54 54 55 55 55 54 54 55 54 55 56 56 56 55 55 56 56 56 55 55 52 51 50 50 53 50 50 51 48 49 47 51 50 52 50 51 53 53 52 51 51 50 49 50 49 49 49 47 48 51 50 50 50 50 50
16 16 13 14 16 15 10 17 13 14 9 16 20 18 17 19 27 27 26 21 21 21 22 27 28 29 33 34 36 38 40 40 41 42 45 48 50 52 52 53 54 54 54 54 55 55 55 52 54 55 54 56 56 56 55 55 55 56 57 58 58 58 54 52 50 50 53 53 53 51 49 50 49 49 52 54 52 53 53 53 53 52 51 51 50 49 49 48 49 48 48 50 50 49 51 51 50
19 11 15 12 17 14 15 23 29 21 14 10 14 20 17 25 20 22 22 19 19 20 20 22 26 28 34 35 36 38 40 40 43 42 44 49 49 51 51 53 53 54 54 55 55 55 54 53 55 55 54 55 55 56 56 56 56 57 58 59 59 58 58 57 52 55 56 56 55 53 50 50 51 51 52 55 54 53 53 53 53 53 52 51 50 49 49 49 49 49 49 50 50 50 50 49 49
13 13 11 15 15 19 20 12 17 13 10 12 14 17 12 12 13 19 20 20 18 18 17 20 29 29 30 34 38 39 41 42 43 44 46 48 50 50 50 51 52 53 53 54 54 55 54 56 55 52 52 54 54 55 56 57 57 58 58 58 58 58 58 58 57 58 58 57 56 55 53 51 52 52 53 55 54 54 53 53 53 53 53 51 50 49 48 49 50 48 49 48 48 49 49 48 48
12 12 15 14 13 12 16 16 12 10 11 9 12 13 11 7 15 18 19 20 21 19 19 21 21 26 30 34 37 40 43 43 43 45 45 47 48 49 50 51 50 52 53 54 52 53 54 56 55 54 53 53 53 54 55 57 56 55 56 57 58 58 58 58 58 58 59 57 56 54 54 53 53 54 51 54 55 53 53 53 53 53 52 51 50 50 50 49 49 49 49 48 49 49 47 47 46
16 16 12 14 18 18 16 15 14 12 10 12 15 9 11 13 14 20 19 21 22 21 21 20 23 27 32 36 38 39 42 43 41 43 45 46 47 49 49 50 49 51 52 53 54 53 53 55 55 55 54 53 53 54 54 53 52 53 57 57 58 56 56 56 58 59 58 56 56 55 54 55 55 52 51 53 52 52 53 52 52 52 52 51 50 49 49 49 49 49 48 47 47 47 46 46 46
15 14 13 15 22 21 19 21 13 12 12 10 11 10 11 17 16 18 18 21 24 23 23 25 27 29 33 37 41 41 41 42 42 42 43 44 47 49 49 49 48 49 51 52 52 53 53 53 54 52 53 54 54 54 53 52 53 55 56 57 57 57 58 56 57 58 58 57 56 56 55 55 54 53 51 52 51 51 50 52 51 51 50 50 50 50 49 49 49 48 47 47 46 44 43 43 45
17 15 15 11 15 13 10 11 12 15 10 11 10 12 15 20 30 22 18 24 25 22 23 25 25 31 37 41 42 42 41 41 42 42 42 42 43 44 44 45 47 47 48 49 50 51 52 52 51 52 51 50 52 52 54 54 54 54 55 55 55 56 57 57 58 58 58 56 56 56 57 55 55 53 51 50 50 51 51 51 50 49 50 49 48 48 48 48 47 48 48 48 47 44 43 43 45